Regional Weather Roundup
Issued by NWS Bismarck, ND

Home | Current Version | Previous Version | Text Only | Print | Product List | Glossary On
Versions: 1 2 3 4 5 6 7 8 9 10 11 12 13 14 15 16 17 18 19 20 21 22 23 24 25 26 27 28 29 30 31 32 33 34 35 36 37 38 39 40 41 42 43 44 45 46 47 48 49 50
000
ASUS43 KBIS 291302
RWRBIS

NWR BROADCAST TEXT
NATIONAL WEATHER SERVICE BISMARCK ND
800 AM CDT WED JUL 29 2015

NOTE: "FAIR" INDICATES FEW OR NO CLOUDS BELOW 12,000 FEET WITH NO
SIGNIFICANT WEATHER AND/OR OBSTRUCTIONS TO VISIBILITY.


CITY           SKY/WX    TMP DP  RH WIND       PRES   REMARKS
WILLISTON      PTSUNNY   60  49  66 W17G24    30.00R
MINOT          PTSUNNY   62  51  67 W18       29.88R
MINOT AFB      PTSUNNY   62  56  81 W17G23    29.86R
BISMARCK       SUNNY     63  48  58 W14       30.00R
DICKINSON      MOSUNNY   60  44  55 W15       30.07R
GARRISON         N/A     62  52  69 W18G28    29.95R
HETTINGER ARPT SUNNY     56  41  57 W12       30.13R
JAMESTOWN      SUNNY     65  51  60 W22G31    29.88R
HAZEN          FAIR      63  48  59 W14       29.99R
STANLEY        FAIR      59  54  82 W13G20    29.96R
$$

CITY           SKY/WX    TMP DP  RH WIND       PRES   REMARKS
GRAND FORKS    CLOUDY    65  55  70 W20G32    29.68R
GRAND FORKS AF PTSUNNY   66  55  67 NW22G43   29.69R
DEVILS LAKE    CLOUDY    64  52  63 W26G36    29.75R
FARGO          PTSUNNY   65  52  62 W21G31    29.78R
CAVALIER       CLOUDY    64  57  77 W18G40    29.61R
GRAFTON        PTSUNNY   66  59  77 W25G32    29.65R
GWINNER        FAIR      64  50  59 W18G24    29.91R
LANGDON        CLOUDY    63  55  77 W24G33    29.68R
$$

CITY           SKY/WX    TMP DP  RH WIND       PRES   REMARKS
ABERDEEN       SUNNY     63  49  60 W13       30.01R
MOBRIDGE       SUNNY     64  47  53 W12       30.04R
BUFFALO          N/A     55  40  56 W9        30.11R
RAPID CITY     SUNNY     60  43  53 W10       30.24S
GLASGOW        MOSUNNY   54  48  80 NW3       30.10R
SIDNEY         PTSUNNY   63  46  55 W14       30.06R
WOLF POINT     PTSUNNY   55  49  80 SW8       30.08R
GLENDIVE       PTSUNNY   59  46  63 W10       30.12R
MILES CITY     SUNNY     53  44  71 W6        30.17R
BAKER          MOSUNNY   57  41  55 W12       30.16R
$$

CITY           SKY/WX    TMP DP  RH WIND       PRES   REMARKS
BILLINGS       PTCLDY    53  37  54 SW14      30.26R
GREAT FALLS    CLEAR     55  40  56 SW10      30.22R
$$




USA.gov is the U.S. government's official web portal to all federal, state and local government web resources and services.